Location: Roussillon
(43.9008°N, 5.2947°E)
Time: 22:27:34
(UTC+00:00)

Meteor 1-11 - Pass Details

Date: 07 June 2020
Orbit: 843 x 885 km, 81.2° (Epoch: 07 July)

Event Time Altitude Azimuth Distance (km) Brightness Sun altitude
Exits shadow 01:03:54 40° 192° (SSW) 1,222 4.5 -20.5°
Maximum altitude 01:06:01 87° 280° (W) 851 4.1 -20.3°
Drops below altitude 10° 01:11:38 10° 10° (N) 2,472 7.8 -19.9°
Sets 01:14:03 0° 11° (N) 3,412 8.8 -19.8°
